BAW909 EDDF-EGLL

Flight info

Callsign BAW909
Flight time 1h 8m
Altitude 38000
Route OBOKA3W OBOKA Z29 TORNU DCT ABNED L980 LOGAN
Aircraft A320/M-SDE3FGHIRWY/LB1

Departure

Time 2026-05-05 14:01
Airport Frankfurt Main Airport (EDDF)

Arrival

Time 2026-05-05 15:10
Airport London Heathrow Airport (EGLL)
Time Latitude Longitude Altitude Speed Heading
2026-05-05 13:40 50.05027 8.58532 360 ft 0 kts 341°
2026-05-05 13:42 50.05026 8.58532 359 ft 0 kts 341°
2026-05-05 13:50 50.05007 8.58543 366 ft 4 kts 339°
2026-05-05 13:50 50.04983 8.58556 363 ft 4 kts 340°
2026-05-05 13:51 50.04959 8.58567 362 ft 4 kts 352°
2026-05-05 13:51 50.04935 8.58567 359 ft 4 kts 24°
2026-05-05 13:51 50.04921 8.58550 367 ft 0 kts 69°
2026-05-05 13:53 50.04930 8.58584 359 ft 8 kts 70°
2026-05-05 13:53 50.04912 8.58665 360 ft 9 kts 141°
2026-05-05 13:53 50.04859 8.58701 366 ft 8 kts 158°
2026-05-05 13:54 50.04807 8.58732 367 ft 9 kts 159°
2026-05-05 13:54 50.04743 8.58768 371 ft 9 kts 164°
2026-05-05 13:54 50.04688 8.58767 370 ft 0 kts 184°
2026-05-05 13:54 50.04684 8.58766 370 ft 2 kts 185°
2026-05-05 13:55 50.04668 8.58763 370 ft 3 kts 187°
2026-05-05 13:55 50.04630 8.58755 370 ft 5 kts 188°
2026-05-05 13:55 50.04629 8.58755 370 ft 0 kts 187°
2026-05-05 13:58 50.04628 8.58754 370 ft 1 kts 187°
2026-05-05 13:58 50.04603 8.58742 371 ft 7 kts 208°
2026-05-05 13:59 50.04499 8.58621 371 ft 9 kts 228°
2026-05-05 13:59 50.04480 8.58562 370 ft 0 kts 248°
2026-05-05 14:00 50.04423 8.58320 372 ft 56 kts 250°
2026-05-05 14:00 50.04210 8.57436 369 ft 116 kts 249°
2026-05-05 14:01 50.03996 8.56546 357 ft 148 kts 250°
2026-05-05 14:01 50.03615 8.54891 632 ft 168 kts 250°
2026-05-05 14:01 50.03207 8.53105 1161 ft 182 kts 249°
2026-05-05 14:01 50.02773 8.51171 1765 ft 195 kts 250°
2026-05-05 14:02 50.02117 8.49340 2568 ft 195 kts 228°
2026-05-05 14:02 50.01031 8.48080 3375 ft 196 kts 204°
2026-05-05 14:02 49.99696 8.47618 4076 ft 203 kts 184°
2026-05-05 14:02 49.98263 8.47429 4839 ft 208 kts 186°
2026-05-05 14:03 49.96817 8.47175 5725 ft 210 kts 187°
2026-05-05 14:03 49.95364 8.46722 6397 ft 222 kts 195°
2026-05-05 14:03 49.93801 8.46039 6767 ft 245 kts 196°
2026-05-05 14:03 49.92221 8.45029 6825 ft 247 kts 211°
2026-05-05 14:04 49.90911 8.43301 6912 ft 250 kts 230°
2026-05-05 14:04 49.89966 8.41023 7734 ft 253 kts 238°
2026-05-05 14:04 49.89119 8.38620 8611 ft 256 kts 246°
2026-05-05 14:04 49.88657 8.35908 9356 ft 270 kts 262°
2026-05-05 14:05 49.88705 8.32903 9873 ft 287 kts 273°
2026-05-05 14:05 49.88891 8.29684 10177 ft 311 kts 275°
2026-05-05 14:05 49.89459 8.26339 10555 ft 330 kts 292°
2026-05-05 14:05 49.90642 8.23242 11187 ft 338 kts 305°
2026-05-05 14:06 49.92052 8.20296 11900 ft 342 kts 305°
2026-05-05 14:06 49.93478 8.17318 12612 ft 346 kts 307°
2026-05-05 14:06 49.95144 8.14596 13315 ft 351 kts 318°
2026-05-05 14:06 49.97010 8.12107 13758 ft 354 kts 318°
2026-05-05 14:07 49.98890 8.09603 14282 ft 357 kts 318°
2026-05-05 14:07 50.00783 8.07079 14919 ft 360 kts 318°
2026-05-05 14:07 50.02692 8.04530 15549 ft 363 kts 318°
2026-05-05 14:07 50.04616 8.01953 16161 ft 367 kts 318°
2026-05-05 14:08 50.06556 7.99350 16774 ft 370 kts 318°
2026-05-05 14:08 50.08518 7.96717 17387 ft 374 kts 318°
2026-05-05 14:08 50.10496 7.94055 18012 ft 377 kts 318°
2026-05-05 14:08 50.12490 7.91363 18561 ft 381 kts 318°
2026-05-05 14:09 50.14506 7.88648 19104 ft 385 kts 318°
2026-05-05 14:09 50.16542 7.85909 19654 ft 388 kts 317°
2026-05-05 14:09 50.18597 7.83136 20241 ft 392 kts 317°
2026-05-05 14:09 50.20642 7.80372 20807 ft 396 kts 317°
2026-05-05 14:10 50.22762 7.77504 21474 ft 400 kts 317°
2026-05-05 14:10 50.24930 7.74736 22067 ft 405 kts 324°
2026-05-05 14:10 50.27367 7.72497 22597 ft 410 kts 334°
2026-05-05 14:10 50.29954 7.70724 23132 ft 413 kts 336°
2026-05-05 14:11 50.32636 7.68902 23621 ft 417 kts 335°
2026-05-05 14:11 50.35273 7.67099 24058 ft 420 kts 335°
2026-05-05 14:11 50.37960 7.65256 24496 ft 423 kts 335°
2026-05-05 14:11 50.40667 7.63400 24924 ft 426 kts 335°
2026-05-05 14:12 50.43388 7.61531 25345 ft 429 kts 335°
2026-05-05 14:12 50.46134 7.59641 25762 ft 432 kts 335°
2026-05-05 14:12 50.48896 7.57737 26175 ft 435 kts 334°
2026-05-05 14:12 50.51673 7.55818 26578 ft 438 kts 334°
2026-05-05 14:13 50.54472 7.53879 26975 ft 441 kts 333°
2026-05-05 14:13 50.57170 7.51580 27360 ft 441 kts 324°
2026-05-05 14:13 50.59744 7.48933 27744 ft 444 kts 324°
2026-05-05 14:13 50.62336 7.46266 28146 ft 446 kts 324°
2026-05-05 14:14 50.64942 7.43592 28543 ft 448 kts 324°
2026-05-05 14:14 50.67564 7.40905 28945 ft 451 kts 324°
2026-05-05 14:14 50.70197 7.38201 29338 ft 453 kts 323°
2026-05-05 14:14 50.72660 7.35142 29731 ft 451 kts 313°
2026-05-05 14:15 50.74785 7.31525 30087 ft 448 kts 304°
2026-05-05 14:15 50.76528 7.27470 30420 ft 445 kts 295°
2026-05-05 14:15 50.77963 7.23134 30738 ft 446 kts 292°
2026-05-05 14:15 50.79363 7.18818 31048 ft 448 kts 292°
2026-05-05 14:16 50.80788 7.14429 31432 ft 448 kts 292°
2026-05-05 14:16 50.82213 7.10051 31889 ft 447 kts 292°
2026-05-05 14:16 50.83632 7.05685 32336 ft 446 kts 292°
2026-05-05 14:16 50.85044 7.01325 32777 ft 445 kts 291°
2026-05-05 14:17 50.86459 6.96950 33214 ft 445 kts 291°
2026-05-05 14:17 50.87864 6.92601 33667 ft 444 kts 291°
2026-05-05 14:17 50.89271 6.88242 34088 ft 443 kts 291°
2026-05-05 14:17 50.90672 6.83893 34454 ft 443 kts 291°
2026-05-05 14:18 50.92066 6.79552 34819 ft 442 kts 291°
2026-05-05 14:18 50.93452 6.75219 35176 ft 441 kts 291°
2026-05-05 14:18 50.94831 6.70889 35537 ft 440 kts 291°
2026-05-05 14:18 50.96207 6.66562 35879 ft 439 kts 292°
2026-05-05 14:19 50.97579 6.62248 36221 ft 438 kts 292°
2026-05-05 14:19 50.98950 6.57928 36551 ft 437 kts 292°
2026-05-05 14:19 51.00316 6.53628 36863 ft 437 kts 292°
2026-05-05 14:19 51.01681 6.49328 37173 ft 436 kts 292°
2026-05-05 14:20 51.03046 6.45025 37490 ft 436 kts 292°
2026-05-05 14:20 51.04404 6.40730 37768 ft 435 kts 292°
2026-05-05 14:20 51.05764 6.36408 37878 ft 436 kts 292°
2026-05-05 14:20 51.07118 6.32097 37883 ft 436 kts 292°
2026-05-05 14:21 51.09826 6.23463 37888 ft 436 kts 292°
2026-05-05 14:21 51.12518 6.14815 37887 ft 436 kts 292°
2026-05-05 14:22 51.14690 6.05914 37888 ft 429 kts 281°
2026-05-05 14:22 51.16181 5.96713 37894 ft 429 kts 281°
2026-05-05 14:23 51.17670 5.87493 37895 ft 430 kts 281°
2026-05-05 14:23 51.19623 5.78448 37902 ft 434 kts 289°
2026-05-05 14:24 51.21977 5.69580 37908 ft 434 kts 289°
2026-05-05 14:24 51.24323 5.60694 37910 ft 435 kts 289°
2026-05-05 14:25 51.26657 5.51789 37912 ft 435 kts 289°
2026-05-05 14:25 51.28979 5.42872 37918 ft 435 kts 289°
2026-05-05 14:26 51.31306 5.33942 37919 ft 435 kts 289°
2026-05-05 14:26 51.33628 5.24986 37915 ft 435 kts 289°
2026-05-05 14:27 51.35941 5.16025 37922 ft 435 kts 289°
2026-05-05 14:27 51.38244 5.07059 37923 ft 435 kts 289°
2026-05-05 14:28 51.40539 4.98093 37939 ft 435 kts 289°
2026-05-05 14:28 51.42826 4.89114 37943 ft 435 kts 289°
2026-05-05 14:29 51.45103 4.80138 37948 ft 435 kts 289°
2026-05-05 14:29 51.47378 4.71164 37938 ft 434 kts 289°
2026-05-05 14:30 51.49644 4.62173 37948 ft 434 kts 289°
2026-05-05 14:30 51.51899 4.53183 37939 ft 434 kts 289°
2026-05-05 14:31 51.54152 4.44178 37951 ft 434 kts 289°
2026-05-05 14:31 51.56389 4.35172 37937 ft 434 kts 289°
2026-05-05 14:32 51.58621 4.26146 37939 ft 434 kts 289°
2026-05-05 14:32 51.60852 4.17122 37934 ft 434 kts 289°
2026-05-05 14:33 51.63058 4.08150 37934 ft 434 kts 289°
2026-05-05 14:33 51.65273 3.99100 37929 ft 434 kts 289°
2026-05-05 14:34 51.67484 3.90057 37940 ft 434 kts 289°
2026-05-05 14:34 51.69687 3.80992 37943 ft 434 kts 289°
2026-05-05 14:35 51.71881 3.71919 37946 ft 434 kts 289°
2026-05-05 14:35 51.74068 3.62845 37951 ft 434 kts 289°
2026-05-05 14:36 51.76244 3.53758 37955 ft 434 kts 288°
2026-05-05 14:36 51.78411 3.44671 37955 ft 434 kts 288°
2026-05-05 14:37 51.80578 3.35562 37963 ft 434 kts 288°
2026-05-05 14:37 51.82730 3.26461 37967 ft 433 kts 288°
2026-05-05 14:38 51.84416 3.17182 37971 ft 428 kts 274°
2026-05-05 14:38 51.84310 3.07637 37964 ft 424 kts 262°
2026-05-05 14:39 51.83679 2.98149 37937 ft 424 kts 262°
2026-05-05 14:39 51.83367 2.93419 37427 ft 423 kts 262°
2026-05-05 14:39 51.83054 2.88682 36825 ft 423 kts 262°
2026-05-05 14:40 51.82741 2.83951 36234 ft 423 kts 262°
2026-05-05 14:40 51.82432 2.79237 35801 ft 420 kts 262°
2026-05-05 14:40 51.82122 2.74561 35388 ft 416 kts 261°
2026-05-05 14:40 51.81809 2.69931 34985 ft 413 kts 261°
2026-05-05 14:41 51.81496 2.65347 34591 ft 409 kts 261°
2026-05-05 14:41 51.81184 2.60799 34193 ft 405 kts 261°
2026-05-05 14:41 51.80874 2.56293 33758 ft 402 kts 261°
2026-05-05 14:41 51.80563 2.51798 33137 ft 403 kts 261°
2026-05-05 14:42 51.80249 2.47305 32603 ft 401 kts 261°
2026-05-05 14:42 51.79930 2.42803 31690 ft 408 kts 261°
2026-05-05 14:42 51.79600 2.38220 30795 ft 415 kts 261°
2026-05-05 14:42 51.79265 2.33563 30004 ft 419 kts 261°
2026-05-05 14:43 51.78928 2.28896 29301 ft 418 kts 261°
2026-05-05 14:43 51.78707 2.25818 28876 ft 416 kts 261°
2026-05-05 14:43 51.78374 2.21188 28273 ft 413 kts 261°
2026-05-05 14:43 51.78076 2.16597 27942 ft 412 kts 262°
2026-05-05 14:44 51.77800 2.11877 27590 ft 430 kts 263°
2026-05-05 14:44 51.77529 2.07035 27167 ft 436 kts 263°
2026-05-05 14:44 51.77257 2.02129 26699 ft 440 kts 263°
2026-05-05 14:44 51.76976 1.97210 26236 ft 440 kts 263°
2026-05-05 14:45 51.76682 1.92219 25828 ft 451 kts 262°
2026-05-05 14:45 51.76376 1.87148 25610 ft 456 kts 262°
2026-05-05 14:45 51.76064 1.82055 25385 ft 456 kts 262°
2026-05-05 14:45 51.75750 1.76961 25164 ft 455 kts 262°
2026-05-05 14:46 51.75437 1.71887 24963 ft 454 kts 262°
2026-05-05 14:46 51.75119 1.66821 24953 ft 454 kts 262°
2026-05-05 14:46 51.74798 1.61751 24966 ft 455 kts 262°
2026-05-05 14:46 51.74474 1.56678 24921 ft 453 kts 262°
2026-05-05 14:47 51.74153 1.51659 24278 ft 447 kts 262°
2026-05-05 14:47 51.73835 1.46684 23523 ft 444 kts 262°
2026-05-05 14:47 51.73519 1.41756 22675 ft 440 kts 262°
2026-05-05 14:47 51.73202 1.36868 21894 ft 435 kts 262°
2026-05-05 14:48 51.72888 1.32040 21133 ft 431 kts 263°
2026-05-05 14:48 51.72573 1.27253 20388 ft 426 kts 263°
2026-05-05 14:48 51.72261 1.22532 19773 ft 420 kts 263°
2026-05-05 14:48 51.71951 1.17899 19351 ft 411 kts 263°
2026-05-05 14:49 51.71643 1.13342 18833 ft 407 kts 263°
2026-05-05 14:49 51.71337 1.08829 18308 ft 404 kts 263°
2026-05-05 14:49 51.71032 1.04340 17718 ft 401 kts 263°
2026-05-05 14:49 51.70725 0.99894 17139 ft 398 kts 263°
2026-05-05 14:50 51.70420 0.95472 16561 ft 394 kts 263°
2026-05-05 14:50 51.70118 0.91112 16085 ft 390 kts 263°
2026-05-05 14:50 51.69818 0.86771 15940 ft 385 kts 263°
2026-05-05 14:50 51.69528 0.82594 15545 ft 377 kts 263°
2026-05-05 14:51 51.69235 0.78418 14996 ft 373 kts 263°
2026-05-05 14:51 51.68939 0.74281 14451 ft 370 kts 263°
2026-05-05 14:51 51.68645 0.70174 13912 ft 367 kts 263°
2026-05-05 14:51 51.68352 0.66089 13315 ft 365 kts 263°
2026-05-05 14:52 51.68061 0.62046 12747 ft 361 kts 264°
2026-05-05 14:52 51.67773 0.58043 12187 ft 358 kts 264°
2026-05-05 14:52 51.67484 0.54080 11660 ft 354 kts 264°
2026-05-05 14:52 51.67204 0.50214 11470 ft 341 kts 264°
2026-05-05 14:53 51.66931 0.46458 11094 ft 335 kts 264°
2026-05-05 14:53 51.66662 0.42747 10644 ft 332 kts 264°
2026-05-05 14:53 51.66393 0.39070 10204 ft 329 kts 264°
2026-05-05 14:53 51.66124 0.35424 9754 ft 327 kts 264°
2026-05-05 14:54 51.65853 0.31797 9276 ft 325 kts 264°
2026-05-05 14:54 51.65586 0.28203 8815 ft 322 kts 264°
2026-05-05 14:54 51.65323 0.24636 8358 ft 320 kts 264°
2026-05-05 14:54 51.65057 0.21083 7910 ft 318 kts 264°
2026-05-05 14:55 51.64789 0.17555 7466 ft 317 kts 264°
2026-05-05 14:55 51.64525 0.14052 7080 ft 314 kts 265°
2026-05-05 14:55 51.64305 0.10557 6989 ft 310 kts 266°
2026-05-05 14:55 51.64122 0.07195 7000 ft 293 kts 266°
2026-05-05 14:56 51.63958 0.03986 7005 ft 285 kts 266°
2026-05-05 14:56 51.63796 0.00835 7005 ft 280 kts 266°
2026-05-05 14:56 51.63630 -0.02283 7005 ft 279 kts 266°
2026-05-05 14:56 51.63459 -0.05392 7004 ft 279 kts 266°
2026-05-05 14:57 51.63290 -0.08493 7050 ft 275 kts 266°
2026-05-05 14:57 51.63124 -0.11505 7056 ft 268 kts 266°
2026-05-05 14:57 51.62956 -0.14467 7055 ft 260 kts 266°
2026-05-05 14:57 51.62794 -0.17289 7058 ft 248 kts 266°
2026-05-05 14:58 51.62633 -0.20039 7060 ft 246 kts 266°
2026-05-05 14:58 51.62473 -0.22781 7063 ft 246 kts 266°
2026-05-05 14:58 51.62314 -0.25523 7068 ft 246 kts 266°
2026-05-05 14:58 51.62155 -0.28231 7060 ft 240 kts 266°
2026-05-05 14:59 51.61999 -0.30874 7058 ft 235 kts 266°
2026-05-05 14:59 51.61846 -0.33496 6979 ft 235 kts 266°
2026-05-05 14:59 51.61695 -0.36114 6980 ft 235 kts 266°
2026-05-05 14:59 51.61542 -0.38736 6982 ft 235 kts 266°
2026-05-05 15:00 51.61388 -0.41350 6979 ft 235 kts 266°
2026-05-05 15:00 51.61285 -0.43085 6979 ft 235 kts 266°
2026-05-05 15:00 51.61076 -0.46577 6883 ft 233 kts 266°
2026-05-05 15:00 51.60920 -0.49165 6624 ft 233 kts 265°
2026-05-05 15:01 51.60763 -0.51756 6367 ft 232 kts 265°
2026-05-05 15:01 51.60605 -0.54339 6086 ft 232 kts 265°
2026-05-05 15:01 51.60447 -0.56916 5796 ft 231 kts 266°
2026-05-05 15:01 51.60291 -0.59480 5518 ft 230 kts 266°
2026-05-05 15:02 51.60135 -0.62042 5237 ft 230 kts 266°
2026-05-05 15:02 51.59981 -0.64596 5022 ft 229 kts 266°
2026-05-05 15:02 51.59823 -0.67142 4980 ft 229 kts 266°
2026-05-05 15:02 51.59663 -0.69702 4984 ft 230 kts 266°
2026-05-05 15:03 51.59504 -0.72258 4986 ft 230 kts 266°
2026-05-05 15:03 51.59348 -0.74821 4983 ft 230 kts 266°
2026-05-05 15:03 51.58944 -0.77282 4891 ft 230 kts 240°
2026-05-05 15:03 51.57819 -0.79057 4613 ft 229 kts 206°
2026-05-05 15:04 51.56306 -0.79637 4424 ft 222 kts 178°
2026-05-05 15:04 51.54789 -0.79555 4142 ft 219 kts 176°
2026-05-05 15:04 51.53248 -0.79463 3763 ft 219 kts 176°
2026-05-05 15:04 51.51734 -0.79378 3412 ft 218 kts 176°
2026-05-05 15:05 51.48729 -0.79028 2993 ft 215 kts 156°
2026-05-05 15:05 51.47657 -0.77487 3002 ft 208 kts 111°
2026-05-05 15:05 51.47519 -0.75254 3004 ft 203 kts 81°
2026-05-05 15:06 51.47617 -0.73026 2996 ft 204 kts 85°
2026-05-05 15:06 51.47637 -0.70780 2845 ft 199 kts 87°
2026-05-05 15:06 51.47649 -0.68578 2598 ft 195 kts 86°
2026-05-05 15:06 51.47660 -0.66464 2358 ft 186 kts 86°
2026-05-05 15:07 51.47672 -0.64413 2105 ft 183 kts 86°
2026-05-05 15:07 51.47683 -0.62386 1869 ft 176 kts 86°
2026-05-05 15:07 51.47691 -0.60571 1652 ft 151 kts 85°
2026-05-05 15:07 51.47699 -0.58951 1450 ft 141 kts 87°
2026-05-05 15:08 51.47707 -0.57421 1251 ft 135 kts 85°
2026-05-05 15:08 51.47715 -0.55907 1075 ft 135 kts 85°
2026-05-05 15:08 51.47729 -0.54410 828 ft 135 kts 86°
2026-05-05 15:08 51.47727 -0.52905 709 ft 137 kts 88°
2026-05-05 15:09 51.47729 -0.51385 511 ft 137 kts 85°
2026-05-05 15:09 51.47750 -0.49845 292 ft 138 kts 86°
2026-05-05 15:09 51.47754 -0.48293 127 ft 140 kts 86°
2026-05-05 15:09 51.47765 -0.46840 89 ft 109 kts 92°
2026-05-05 15:10 51.47763 -0.45862 85 ft 68 kts 88°
2026-05-05 15:10 51.47765 -0.45324 87 ft 31 kts 89°
2026-05-05 15:10 51.47689 -0.45182 87 ft 19 kts 172°
2026-05-05 15:10 51.47607 -0.45201 89 ft 10 kts 220°
2026-05-05 15:11 51.47595 -0.45325 91 ft 13 kts 271°
2026-05-05 15:11 51.47596 -0.45489 87 ft 16 kts 270°
2026-05-05 15:11 51.47595 -0.45690 89 ft 19 kts 269°
2026-05-05 15:11 51.47595 -0.45923 88 ft 22 kts 270°
2026-05-05 15:12 51.47594 -0.46159 87 ft 17 kts 269°
2026-05-05 15:12 51.47593 -0.46367 87 ft 20 kts 270°
2026-05-05 15:12 51.47593 -0.46607 87 ft 23 kts 269°
2026-05-05 15:12 51.47587 -0.46839 87 ft 19 kts 264°
2026-05-05 15:13 51.47582 -0.47072 89 ft 22 kts 269°
2026-05-05 15:13 51.47581 -0.47333 90 ft 25 kts 270°
2026-05-05 15:13 51.47582 -0.47626 90 ft 27 kts 270°
2026-05-05 15:13 51.47579 -0.47895 88 ft 13 kts 270°
2026-05-05 15:14 51.47579 -0.48014 88 ft 11 kts 269°
2026-05-05 15:14 51.47578 -0.48148 89 ft 13 kts 269°
2026-05-05 15:14 51.47577 -0.48304 87 ft 15 kts 270°
2026-05-05 15:14 51.47575 -0.48442 87 ft 9 kts 258°
2026-05-05 15:15 51.47524 -0.48473 88 ft 9 kts 184°
2026-05-05 15:15 51.47461 -0.48478 87 ft 10 kts 181°
2026-05-05 15:15 51.47387 -0.48478 87 ft 11 kts 180°
2026-05-05 15:15 51.47306 -0.48477 87 ft 12 kts 179°
2026-05-05 15:16 51.47220 -0.48475 87 ft 13 kts 180°
2026-05-05 15:16 51.47128 -0.48475 87 ft 14 kts 179°
2026-05-05 15:16 51.47031 -0.48474 87 ft 14 kts 179°
2026-05-05 15:16 51.46944 -0.48472 88 ft 10 kts 179°
2026-05-05 15:17 51.46889 -0.48477 88 ft 5 kts 212°
2026-05-05 15:17 51.46877 -0.48537 87 ft 7 kts 268°
2026-05-05 15:17 51.46876 -0.48617 87 ft 7 kts 269°
2026-05-05 15:17 51.46876 -0.48703 87 ft 6 kts 269°
2026-05-05 15:18 51.46895 -0.48717 87 ft 4 kts 360°
2026-05-05 15:18 51.46920 -0.48717 87 ft 2 kts 360°
2026-05-05 15:18 51.46930 -0.48718 87 ft 0 kts 359°